Previsão horária em Sengileevskoe

Hoje, 28 Fevereiro, Domingo

Tempo Temperatura Precipitação Vento Pressão Humidade
00:00 +1°C° 0.1 mm 3 m/s 738 mmHg 93%
01:00 +1°C° 0.9 mm 3 m/s 738 mmHg 94%
02:00 0°C° 0.9 mm 4 m/s 738 mmHg 95%
03:00 +1°C° 0 mm 6 m/s 738 mmHg 97%
04:00 +1°C° 1 mm 5 m/s 738 mmHg 97%
05:00 +1°C° 1 mm 5 m/s 738 mmHg 97%
06:00 +1°C° 1 mm 4 m/s 738 mmHg 97%
07:00 +1°C° 0.9 mm 4 m/s 738 mmHg 97%
08:00 +1°C° 0.9 mm 4 m/s 738 mmHg 97%
09:00 +1°C° 0 mm 3 m/s 738 mmHg 98%
10:00 +2°C° 0.4 mm 2 m/s 739 mmHg 98%
11:00 +2°C° 0.4 mm 2 m/s 739 mmHg 98%
12:00 +2°C° 0.4 mm 2 m/s 739 mmHg 98%
13:00 +2°C° 0.2 mm 2 m/s 739 mmHg 97%
14:00 +3°C° 0.2 mm 1 m/s 739 mmHg 96%
15:00 +3°C° 0.2 mm 1 m/s 739 mmHg 95%
16:00 +3°C° 0.3 mm 1 m/s 739 mmHg 96%
17:00 +3°C° 0.3 mm 1 m/s 739 mmHg 96%
18:00 +3°C° 0.3 mm 1 m/s 740 mmHg 97%
19:00 +3°C° 0.1 mm 1 m/s 740 mmHg 97%
20:00 +3°C° 0.1 mm 1 m/s 740 mmHg 97%
21:00 +2°C° 0.1 mm 1 m/s 741 mmHg 98%
22:00 +2°C° 0.3 mm 1 m/s 741 mmHg 97%
23:00 +2°C° 0.3 mm 1 m/s 741 mmHg 97%

Amanhã, 1 Março, Segunda-feira

Tempo Temperatura Precipitação Vento Pressão Humidade
00:00 +2°C° 0.3 mm 1 m/s 741 mmHg 97%
01:00 +2°C° 0.2 mm 1 m/s 742 mmHg 97%
02:00 +1°C° 0.2 mm 2 m/s 742 mmHg 97%
03:00 +1°C° 0.2 mm 2 m/s 743 mmHg 97%
04:00 +1°C° 0.1 mm 2 m/s 743 mmHg 97%
05:00 -1°C° 0.1 mm 3 m/s 743 mmHg 97%
06:00 -1°C° 0.1 mm 3 m/s 744 mmHg 96%
07:00 -1°C° 0.1 mm 3 m/s 744 mmHg 95%
08:00 0°C° 0.1 mm 3 m/s 744 mmHg 95%
09:00 0°C° 0.1 mm 3 m/s 745 mmHg 94%
10:00 0°C° 0.1 mm 3 m/s 745 mmHg 91%
11:00 +1°C° 0.1 mm 3 m/s 745 mmHg 87%
12:00 +2°C° 0.1 mm 3 m/s 745 mmHg 84%
13:00 +2°C° 0.1 mm 3 m/s 745 mmHg 81%
14:00 +3°C° 0.1 mm 2 m/s 745 mmHg 79%
15:00 +4°C° 0.1 mm 2 m/s 745 mmHg 76%
16:00 +3°C° 0 mm 2 m/s 745 mmHg 79%
17:00 +4°C° 0 mm 1 m/s 746 mmHg 82%
18:00 +3°C° 0 mm 1 m/s 746 mmHg 84%
19:00 +3°C° 0 mm 1 m/s 746 mmHg 87%
20:00 +2°C° 0 mm 1 m/s 747 mmHg 89%
21:00 +2°C° 0 mm 1 m/s 747 mmHg 92%
22:00 +2°C° 0 mm 1 m/s 747 mmHg 93%
23:00 +2°C° 0 mm 1 m/s 747 mmHg 93%

Depois de amanhã, 2 Março, Terça-feira

Tempo Temperatura Precipitação Vento Pressão Humidade
00:00 +1°C° 0 mm 1 m/s 747 mmHg 94%
01:00 +1°C° 0 mm 1 m/s 747 mmHg 94%
02:00 +1°C° 0 mm 1 m/s 747 mmHg 94%
03:00 +1°C° 0 mm 1 m/s 747 mmHg 93%
04:00 +1°C° 0 mm 1 m/s 747 mmHg 94%
05:00 +1°C° 0 mm 1 m/s 748 mmHg 95%
06:00 0°C° 0 mm 1 m/s 748 mmHg 96%
07:00 -1°C° 0 mm 2 m/s 748 mmHg 94%
08:00 -1°C° 0 mm 2 m/s 748 mmHg 93%
09:00 +1°C° 0 mm 2 m/s 747 mmHg 91%
10:00 +1°C° 0 mm 3 m/s 747 mmHg 87%
11:00 +1°C° 0 mm 3 m/s 747 mmHg 83%
12:00 +1°C° 0 mm 4 m/s 746 mmHg 79%
13:00 +1°C° 0 mm 4 m/s 746 mmHg 78%
14:00 +2°C° 0 mm 5 m/s 746 mmHg 77%
15:00 +2°C° 0 mm 5 m/s 745 mmHg 76%
16:00 +3°C° 0 mm 4 m/s 745 mmHg 79%
17:00 +1°C° 0 mm 4 m/s 745 mmHg 82%
18:00 +2°C° 0 mm 3 m/s 744 mmHg 85%
19:00 +2°C° 0 mm 3 m/s 744 mmHg 87%
20:00 0°C° 0 mm 4 m/s 744 mmHg 89%
21:00 0°C° 0 mm 4 m/s 744 mmHg 91%
22:00 0°C° 0 mm 5 m/s 743 mmHg 88%
23:00 -1°C° 0 mm 5 m/s 743 mmHg 86%

3 Março, Quarta-feira

Tempo Temperatura Precipitação Vento Pressão Humidade
00:00 -2°C° 0 mm 6 m/s 743 mmHg 84%
01:00 -2°C° 0 mm 7 m/s 742 mmHg 83%
02:00 -2°C° 0 mm 8 m/s 742 mmHg 81%
03:00 -3°C° 0 mm 9 m/s 741 mmHg 80%
04:00 -1°C° 0 mm 9 m/s 741 mmHg 79%
05:00 -1°C° 0 mm 9 m/s 740 mmHg 78%
06:00 -1°C° 0 mm 9 m/s 739 mmHg 77%
07:00 -2°C° 0 mm 10 m/s 739 mmHg 74%
08:00 -1°C° 0 mm 11 m/s 739 mmHg 72%
09:00 -1°C° 0 mm 12 m/s 739 mmHg 69%
10:00 -1°C° 0.5 mm 12 m/s 739 mmHg 74%
11:00 -1°C° 0.5 mm 12 m/s 739 mmHg 80%
12:00 -1°C° 0.5 mm 12 m/s 739 mmHg 85%
13:00 0°C° 0.5 mm 10 m/s 739 mmHg 88%
14:00 -1°C° 0.5 mm 9 m/s 740 mmHg 90%
15:00 -2°C° 0.5 mm 7 m/s 740 mmHg 93%
16:00 -1°C° 0.1 mm 6 m/s 741 mmHg 90%
17:00 -1°C° 0.1 mm 6 m/s 741 mmHg 87%
18:00 0°C° 0.1 mm 5 m/s 742 mmHg 84%
19:00 -1°C° 0.1 mm 4 m/s 743 mmHg 87%
20:00 -1°C° 0.1 mm 4 m/s 743 mmHg 90%
21:00 -1°C° 0.1 mm 3 m/s 744 mmHg 93%
22:00 -1°C° 0 mm 3 m/s 744 mmHg 93%
23:00 -1°C° 0 mm 3 m/s 745 mmHg 93%

4 Março, Quinta-feira

Tempo Temperatura Precipitação Vento Pressão Humidade
00:00 -1°C° 0 mm 2 m/s 745 mmHg 93%
01:00 -1°C° 0.1 mm 3 m/s 745 mmHg 92%
02:00 -1°C° 0.1 mm 3 m/s 745 mmHg 92%
03:00 -1°C° 0.1 mm 3 m/s 745 mmHg 91%
04:00 -2°C° 0 mm 3 m/s 745 mmHg 92%
05:00 -2°C° 0 mm 3 m/s 746 mmHg 93%
06:00 -4°C° 0 mm 3 m/s 746 mmHg 93%
07:00 -2°C° 0 mm 3 m/s 746 mmHg 89%
08:00 -1°C° 0 mm 3 m/s 746 mmHg 84%
09:00 -1°C° 0 mm 3 m/s 746 mmHg 79%
10:00 0°C° 0 mm 3 m/s 746 mmHg 73%
11:00 +2°C° 0 mm 3 m/s 746 mmHg 67%
12:00 +3°C° 0 mm 3 m/s 745 mmHg 61%
13:00 +3°C° 0 mm 3 m/s 745 mmHg 58%
14:00 +4°C° 0 mm 3 m/s 745 mmHg 56%
15:00 +4°C° 0 mm 3 m/s 744 mmHg 53%
16:00 +3°C° 0 mm 3 m/s 744 mmHg 58%
17:00 +2°C° 0 mm 3 m/s 744 mmHg 63%
18:00 +3°C° 0 mm 2 m/s 744 mmHg 68%
19:00 +2°C° 0 mm 2 m/s 744 mmHg 70%
20:00 +2°C° 0 mm 2 m/s 744 mmHg 73%
21:00 +1°C° 0 mm 2 m/s 744 mmHg 75%
22:00 +1°C° 0 mm 2 m/s 744 mmHg 77%
23:00 +1°C° 0 mm 2 m/s 743 mmHg 79%

5 Março, Sexta-feira

Tempo Temperatura Precipitação Vento Pressão Humidade
00:00 -1°C° 0 mm 2 m/s 743 mmHg 80%
01:00 +1°C° 0 mm 1 m/s 743 mmHg 82%
02:00 +1°C° 0 mm 1 m/s 743 mmHg 83%
03:00 +1°C° 0 mm 1 m/s 743 mmHg 84%
04:00 +1°C° 0 mm 1 m/s 743 mmHg 84%
05:00 +1°C° 0 mm 1 m/s 743 mmHg 84%
06:00 +1°C° 0 mm 1 m/s 743 mmHg 84%
07:00 +1°C° 0 mm 2 m/s 742 mmHg 78%
08:00 +2°C° 0 mm 2 m/s 742 mmHg 71%
09:00 +3°C° 0 mm 2 m/s 742 mmHg 65%
10:00 +5°C° 0 mm 2 m/s 742 mmHg 59%
11:00 +6°C° 0 mm 2 m/s 742 mmHg 54%
12:00 +8°C° 0 mm 2 m/s 741 mmHg 48%
13:00 +9°C° 0 mm 1 m/s 741 mmHg 46%
14:00 +10°C° 0 mm 1 m/s 741 mmHg 43%
15:00 +10°C° 0 mm 1 m/s 740 mmHg 41%
16:00 +9°C° 0 mm 1 m/s 740 mmHg 46%
17:00 +8°C° 0 mm 1 m/s 740 mmHg 50%
18:00 +6°C° 0 mm 0 m/s 740 mmHg 54%
19:00 +6°C° 0 mm 1 m/s 740 mmHg 57%
20:00 +5°C° 0 mm 2 m/s 740 mmHg 59%
21:00 +4°C° 0 mm 2 m/s 740 mmHg 61%
22:00 +4°C° 0 mm 2 m/s 740 mmHg 62%
23:00 +4°C° 0 mm 2 m/s 740 mmHg 63%
Mostrar mais

Necessitamos do seu Consentimento

A Meteoprog e os seus Fornecedores de Serviços podem armazenar e aceder a dados pessoais como cookies, identificadores do dispositivo ou outras tecnologias semelhantes existentes no seu dispositivo e processar estes dados para personalizar conteúdos e anúncios, assim como funcionalidades nas redes sociais e análise de tráfego.

  • Armazenar e/ou aceder a informações no seu dispositivo

    Os cookies, identificadores do dispositivo ou outras informações podem ser armazenados ou acedidos no seu dispositivo, para os fins acima indicados.

  • Anúncios e conteúdos personalizados, medição de anúncios e conteúdos, dados sobre o público-alvo e desenvolvimento de produtos

    Os anúncios e os conteúdos podem ser personalizados com base num perfil. Podem ser adicionados dados adicionais para uma maior personalização dos anúncios e dos conteúdos. A eficácia dos anúncios e dos conteúdos pode ser medida. Podem ser obtidas informações sobre o público que visualizou os anúncios e os conteúdos. Estes dados podem ser usados para desenvolver ou melhorar sistemas, softwares ou a experiência do utilizador.

Ao clicar em "Eu concordo”, permitirá o uso de cookies, identificadores do dispositivo e web beacons mencionados ou outras tecnologias semelhantes. As configurações do navegador do seu dispositivo podem ser alteradas.

Para certos fins, podem ser invocados interesses legítimos ao invés de consentimento. Pode ler mais informação sobre este assunto na nossa Política de Privacidade e Cookies.